sat.trackr.live / text

‹ back to catalog

2024-153D

NORAD 60748 · 2024-153D

PAYLOAD ACTIVE UNKNOWN

§ Identity

Operator
Country
PRC
Launch date
2024-08-29
Launch site
YSLA
Launch vehicle
Mass (kg)
RCS (m²)

External: N2YO · Heavens-Above · Gunter

§ Orbital elements

Epoch: 2026-09-22T22:20:52.998144Z

Period
94.09 min
Inclination
97.6906°
Eccentricity
0.0001631
Mean motion
15.30379331 rev/d
Perigee alt
473.6 km
Apogee alt
475.8 km
Semi-major
6,852.8 km
B*
4.1678e-4
RAAN
47.0306°
Arg perigee
178.7960°
Mean anomaly
181.3284°
Rev number
11,478

§ Raw data

2024-153D1 60748U 24153D   26265.93116896  .00012172  00000+0  41678-3 0  99952 60748  97.6906  47.0306 0001631 178.7960 181.3284 15.30379331114786

JSON: /api/v1/satellites/60748 · /tle

For live sub-satellite position, see the globe view (requires WebGL).

§ Visibility from observer

Set your observer location to see the next 7 days of passes ≥ 10°. The values pass through the URL so the page stays shareable.

No JS? Fill the form by hand. The geolocation button needs JavaScript.